CSUNSAT1 (42715 NORAD) Tracking and Keplerian Element Data

This shows tracking and keplerian element data for the satellite.

Feedback or suggestion? Click here.




ElementValue
Catalog42715
NameCSUNSAT1
Epoch Orbit10997
Epoch Day109.73119918
Epoch Year2019
RAAN212.6332
Inclination51.6233
Eccentricity0.0010036
Argument of Perigee334.1218
Mean Anonmoly25.9291
Mean Motion16.05336673
Decay Rate0.00305368
L11 42715U 98067LW 19109.73119918 .00305368 53571-4 42392-3 0 9991
L22 42715 51.6233 212.6332 0010036 334.1218 25.9291 16.05336673109976

Live tracking and technical data element details for CSUNSAT1 (NORAD 42715). CSUNSAT1 can be tracked NOW for your location showing map with azimuth and elevation plus other details from your city location.

Track the satellite on the map from your city or location and see movement details for azimuth, elevation, latitude, longitude, range, height, and movement on the map or in text.







IsCatalogInMostPopularTable: catalog: 42715, numindb: 239
Update: records affected: 1



GetName: 42715 CSUNSAT1

Hit Count: updated at: Sat, 20 Apr 2019 20:43:13 GMT